シニオス彗星

167P/CINEOS (2001)

English version
Home page
Updated on February 4, 2013

---------------------------------------------------------------------

・ プロフィール

符号 167P/2004 PY42
発見日 2004年8月10日
発見光度 19.8等
発見者 Campo Imperatore Near Earth Objects Survey

・ 軌道要素

The following orbital elements are taken from MPC 75722:

Epoch 2001 May 11.0 TT = JDT 2452040.5
T 2001 Apr. 24.1989 TT                                  MPC
q  11.788260             (2000.0)            P               Q
n   0.0152142      Peri.  344.0477      +0.1854377      +0.9373513
a  16.130067       Node   295.8436      -0.8619480      +0.0110344
e   0.269175       Incl.   19.1297      -0.4718671      +0.3482109
P  64.8
From 88 observations 2002-2009, mean residual 0".4.

・ 星図

・ 光度変化

        H = 9.0  G = 0.15

---------------------------------------------------------------------

軌道要素はMPCのEphemerides and Orbital Elementsに掲載されたものです。
星図は StellaNavigator Ver.2.0 for Windows (アストロアーツ 編著 / アスキー出版局刊) で作成したものです。
光度グラフはComet for Windowsで作成したものです。

---------------------------------------------------------------------

Copyright(C) Seiichi Yoshida (comet@aerith.net). All rights reserved.